ORBCOMM FM19

Last updated on Thu Aug 20 2026 00:03:08 GMT+0000 (Coordinated Universal Time)

1 25415U 98046C 26231.37949495 .00000683 00000+0 26181-3 0 9995 2 25415 44.9943 303.1605 0005513 255.0175 198.4931 14.39597208465883
UTC large
Height (km)
Speed (km/s)
/
Latitude / Longitude
Inclination (degrees)
Orbital Period (minutes)
Azimuth
Elevation
Range (km)
Doppler Factor

Next 0 passes for location: London (51.5072 / 0.1276)

No passes found over London.
ORBCOMM FM19